Home   Weather   Livonia   Past weeks

Flag for USA Past Weather in Livonia, Michigan, USA — Yesterday and Last 2 Weeks

Now
76 °F

Overcast.


Feels Like: 77 °F
Forecast: 67 / 81 °F
Wind: 6 mph from South

Location: Detroit Metropolitan Wayne County Airport

Current Time: Aug 30, 2016 at 10:32:57 PM

Latest Report: Aug 30, 2016 at 9:53 PM


Visibility: 9 mi

Pressure: 30.04 "Hg

Humidity: 74%

Dew Point: 67 °F

Location of LivoniaLocation

Past Weather in Livonia — Graph

°F

Livonia Temperature Yesterday

Maximum temperature yesterday: 83 °F (at 3:53 PM)
Minimum temperature yesterday: 67 °F (at 6:53 AM)
Average temperature yesterday: 75 °F

High & Low Weather Summary for the Past Weeks

 TemperatureHumidityPressure
High87 °F (Aug 19, 1:53 PM)100% (Aug 25, 1:53 AM)30.28 "Hg (Aug 25, 1:53 AM)
Low58 °F (Aug 22, 6:53 AM)4% (Aug 16, 10:53 AM)29.61 "Hg (Aug 20, 8:53 PM)
Average74 °F76%30.05 "Hg
* Reported Aug 15 8:53 PM — Aug 30 8:53 PM, Livonia, Weather by CustomWeather, © 2016

Note: Actual official high and low records may vary slightly from our data, if they occured in-between our weather recording intervals... More about our weather records

Advertising

Livonia Weather History for the Previous 24 Hours

Scroll right to see more
 ConditionsComfort  
Time TempWeatherWind HumidityBarometerVisibility
8:53 PM
Tue, Aug 30
77 °FOvercast.6 mph71%30.03 "Hg10 mi
7:53 PM78 °FPartly sunny.5 mph69%30.03 "Hg10 mi
6:53 PM79 °FMostly cloudy.6 mph62%30.04 "Hg10 mi
5:53 PM80 °FMore clouds than sun.5 mph58%30.06 "Hg10 mi
4:53 PM80 °FMostly cloudy.7 mph56%30.07 "Hg10 mi
3:53 PM81 °FCloudy.7 mph47%30.09 "Hg10 mi
2:53 PM81 °FCloudy.3 mph51%30.10 "Hg10 mi
1:53 PM79 °FCloudy.7 mph52%30.13 "Hg10 mi
12:53 PM80 °FMore clouds than sun.8 mph52%30.14 "Hg10 mi
11:53 AM80 °FBroken clouds.7 mph58%30.14 "Hg10 mi
10:53 AM78 °FPartly sunny.8 mph56%30.16 "Hg10 mi
9:53 AM75 °FBroken clouds.8 mph66%30.16 "Hg10 mi
8:53 AM73 °FBroken clouds.7 mph74%30.19 "Hg8 mi
7:53 AM70 °FPartly cloudy.7 mph84%30.19 "Hg5 mi
6:53 AM68 °FFog.No wind93%30.18 "Hg3 mi
5:53 AM68 °FFog.No wind93%30.17 "Hg3 mi
4:53 AM68 °FFog.No wind96%30.17 "Hg3 mi
4:03 AM68 °FFog.No wind93%30.20 "Hg2 mi
3:53 AM68 °FFog.No wind93%30.18 "Hg5 mi
2:53 AM68 °FFog.No wind96%30.19 "Hg5 mi
1:53 AM70 °FFog.No wind90%30.19 "Hg6 mi
12:53 AM70 °FPassing clouds.No wind90%30.19 "Hg9 mi
11:53 PM
Mon, Aug 29
71 °FPassing clouds.3 mph90%30.19 "Hg9 mi
10:53 PM72 °FPassing clouds.No wind87%30.20 "Hg9 mi
Weather by CustomWeather, © 2016

See weather overviewHow to use our weather pages